Regional Weather Roundup
Issued by NWS

Home | Current Version | Previous Version | Graphics & Text | Print | Product List | Glossary Off
Versions: 1 2 3 4 5 6 7 8 9 10 11 12 13 14 15 16 17 18 19 20 21 22 23 24 25 26 27 28 29 30 31 32 33 34 35 36 37 38 39 40 41 42 43 44 45 46 47 48 49 50

000
ASUS43 KMKX 242311
RWRWI

WISCONSIN REGIONAL WEATHER ROUNDUP
NATIONAL WEATHER SERVICE MILWAUKEE/SULLIVAN WI
500 PM CST SAT JAN 24 2015

NOTE: "FAIR" INDICATES FEW OR NO CLOUDS BELOW 12,000 FEET WITH NO
SIGNIFICANT WEATHER AND/OR OBSTRUCTIONS TO VISIBILITY.

WIZ001-002-006>008-014>016-023>028-250000-
NORTHWEST WISCONSIN

CITY           SKY/WX    TMP DP  RH WIND       PRES   REMARKS
SUPERIOR ARPT  CLOUDY    31  30  94 NE14G22   29.66R WCI  21
ASHLAND        CLOUDY    26  22  84 NE15      29.69R WCI  14
HAYWARD        CLOUDY    35  29  78 NE6       29.61R WCI  30
SIREN          CLOUDY    37  30  74 CALM      29.61R
CUMBERLAND     MOCLDY    34  28  80 CALM      29.58S
RICE LAKE      MOCLDY    35  30  82 NE3       29.60S
CHETEK         CLOUDY    35  30  84 CALM      29.59S
LADYSMITH      CLOUDY    37  30  77 N6        29.61S WCI  32
EAU CLAIRE     CLOUDY    36  29  75 CALM      29.59S
MENOMONIE      CLOUDY    36  31  83 CALM      29.60R
NEW RICHMOND   CLOUDY    37  31  79 CALM      29.59S
OSCEOLA        CLOUDY    37  31  78 NE3       29.62R
$$

WIZ003>005-009-010-017-018-250000-
NORTH CENTRAL WISCONSIN

CITY           SKY/WX    TMP DP  RH WIND       PRES   REMARKS
MANITOWISH WTR CLOUDY    27  24  87 NE9       29.61R WCI  18
ARBOR VITAE    CLOUDY    32  28  85 N8        29.60R WCI  25
WOODRUFF       CLOUDY    32  28  85 N8        29.60R WCI  25
RHINELANDER    CLOUDY    34  26  72 N5        29.59R WCI  30
EAGLE RIVER    CLOUDY    30  24  79 N8        29.60R WCI  22
LAND O LAKES   CLOUDY    25  22  87 NE7       29.63R WCI  18
PHILLIPS       CLOUDY    34  29  83 NW3       29.59R
TOMAHAWK       CLOUDY    34  29  80 CALM      29.59R
MEDFORD        CLOUDY    34  29  83 NW5       29.59R WCI  30
MERRILL        CLOUDY    36  29  76 N3        29.59R
$$

WIZ029-030-035-036-043>047-250000-
CENTRAL WISCONSIN

CITY           SKY/WX    TMP DP  RH WIND       PRES   REMARKS
WAUSAU         CLOUDY    36  30  79 W5        29.58R WCI  32
MOSINEE        CLOUDY    36  32  87 W7        29.60R WCI  30
MARSHFIELD     CLOUDY    35  30  82 CALM      29.60R
STEVENS POINT  CLOUDY    33  29  85 W3        29.62R
WAUPACA        CLOUDY    37  31  82 W5        29.62R WCI  33
WAUTOMA        CLOUDY    35  32  89 NW7       29.64R WCI  29
WISC RAPIDS    CLOUDY    35  29  78 W5        29.63R WCI  31
CAMP DOUGLAS   PTCLDY    33  33 100 E2        29.61F
$$

WIZ011>013-019>022-031-037>040-048>050-250000-
NORTHEAST WISCONSIN

CITY           SKY/WX    TMP DP  RH WIND       PRES   REMARKS
ANTIGO         CLOUDY    34  29  80 N3        29.59R
SHAWANO        CLOUDY    39  31  72 CALM      29.61R
OCONTO         CLOUDY    33  29  85 E9G16     29.62R WCI  25
STURGEON BAY   CLOUDY    34  28  80 NE7       29.64R WCI  28
GREEN BAY      CLOUDY    36  32  85 W6        29.61R WCI  31
MANITOWOC      CLOUDY    36  33  89 W7        29.62R WCI  30
APPLETON       PTCLDY    36  30  80 W7        29.61R WCI  30
CLINTONVILLE   CLOUDY    36  30  80 CALM      29.61R
OSHKOSH        CLOUDY    35  31  85 W5        29.62R WCI  31
$$

WIZ032>034-041-042-053>061-250000-
SOUTHWEST WISCONSIN

CITY           SKY/WX    TMP DP  RH WIND       PRES   REMARKS
LA CROSSE      MOCLDY    37  30  75 CALM      29.60F
SPARTA         MOCLDY    35  30  81 CALM      29.61F
VIROQUA        MOCLDY    38  32  80 SW3       29.59F
BOSCOBEL       PTCLDY    42  32  67 S3        29.62S
PRAIRIE DU CHI MOCLDY    40  33  75 S5        29.62S
PLATTEVILLE    MOCLDY    37  33  87 SW6       29.63S WCI  32
$$

WIZ056-057-062-063-064-067-068-250000-
SOUTH CENTRAL WISCONSIN

CITY           SKY/WX    TMP DP  RH WIND       PRES   REMARKS
REEDSBURG      CLOUDY    33  30  88 CALM      29.61F
BARABOO/DELLS  MOCLDY    33  29  88 SW3       29.61F
LONE ROCK      PTCLDY    32  28  85 CALM      29.63S
MINERAL POINT  PTCLDY    37  32  81 SW3       29.62S
MADISON        CLOUDY    34  29  82 CALM      29.64R
MIDDLETON      MOCLDY    34  31  88 CALM      29.64R
WATERTOWN      CLOUDY    33  32  93 SW6       29.61F WCI  28
MONROE         PTCLDY    32  32 100 CALM      29.63S
JANESVILLE     CLOUDY    36  30  80 W8        29.65R WCI  29
$$

WIZ051-052-058>065-066-070>072-250000-
SOUTHEAST WISCONSIN

CITY           SKY/WX    TMP DP  RH WIND       PRES   REMARKS
MILWAUKEE      CLOUDY    37  29  72 SW9       29.62S WCI  30
WAUKESHA       CLOUDY    34  28  80 W9        29.63R WCI  26
MILWAUKEE/TIMM NOT AVBL
RACINE         CLOUDY    36  30  79 SW8       29.65R WCI  30
BURLINGTON     CLOUDY    32  29  89 W5        29.65R WCI  27
KENOSHA        CLOUDY    34  30  85 NW10      29.65R WCI  26
FOND DU LAC    CLOUDY    35  30  82 W5        29.62R WCI  31
SHEBOYGAN      CLOUDY    36  31  82 NW7       29.62R WCI  30
WEST BEND      CLOUDY    34  30  86 W7        29.61R WCI  28
JUNEAU         CLOUDY    34  31  90 CALM      29.63R
$$

LSZ147-162-250000-
LAKE SUPERIOR

STATION/POSITION TIME  TEMP    WIND        PRES    WAVE
                       AIR SEA DIR/SP/G            HT/PER
                 (UTC) (F)     (DEG/KT/KT) (MB)    (FT/S)
DEVILS ISLAND    2300   25      90/ 24/ 26 1007.4R
PORT WING        2200   31     110/  4/ 13 1004.4
SAXON HARBOR     2220   27      50/ 19     1005.1R
$$

LMZ867-665-643>646-250000-
LAKE MICHIGAN

STATION/POSITION TIME  TEMP    WIND        PRES    WAVE
                       AIR SEA DIR/SP/G            HT/PER
                 (UTC) (F)     (DEG/KT/KT) (MB)    (FT/S)
NORTHPORT PIER   2300   28     360/ 13/ 20 1004.7R
SISTER BAY       2213   30      30/ 15/ 21   N/A
KEWAUNEE LAKESHO 2200   38     270/  6/  8 1001.3R
SHEBOYGAN LAKESH 2300   37     300/  7/  8 1003.9R
PORT WASHINGTON  2200   38      CALM  /  6 1003.4S
MILWAUKEE LAKESH 2200   38     280/  8/  9   N/A
KENOSHA   LAKESH 2300   36     270/  7/  9 1004.1R
$$

TC  - TEMPERATURE IN CELSIUS
VSB - VISIBILITY IN STATUTE MILES
WCI - WIND CHILL INDEX
HX  - HEAT INDEX



USA.gov is the U.S. government's official web portal to all federal, state and local government web resources and services.